Location: Peebles
(55.6412°N, 3.1714°W)
Time: 15:01:36
(UTC+01:00)

ARIANE 5 R/B - Visible Passes

Search period start: 03 July 2022 00:00
Search period end: 13 July 2022 00:00
Orbit: 747 x 795 km, 98.7° (Epoch: 02 July)

Date Brightness Start Highest point End Pass type
(mag) Time Alt. Az. Time Alt. Az. Time Alt. Az.
06 Jul 5.0 03:36:54 10° NE 03:39:48 15° E 03:42:42 10° ESE visible
09 Jul 5.1 03:31:28 10° NE 03:33:59 14° E 03:36:32 10° ESE visible
12 Jul 5.2 03:26:06 10° ENE 03:28:11 12° E 03:30:16 10° ESE visible
